When you browse on this site, cookies collect data to enhance your experience and personalize the content and advertising you see.
Visit our Privacy Policy to learn more. By continuing to use the site, you agree to this use of cookies and data.
  • In Hungary
  • List of Countries
  • For 7 days
  • Water Temperature
  • Satellite Maps
  • Weather Map
  • News
  • Weather Widgets
  • user-avatar
    Login

    Hourly Weather Lilongwe

    Today, 18 January, Friday

    Time Temperature Precipitation Wind Pressure Humidity
    00:00 +22°C° 0 mm 1 mps 671 mmHg 91%
    01:00 +21°C° 0 mm 1 mps 670 mmHg 92%
    02:00 +21°C° 0 mm 1 mps 670 mmHg 92%
    03:00 +21°C° 0 mm 1 mps 670 mmHg 92%
    04:00 +21°C° 0 mm 1 mps 670 mmHg 93%
    05:00 +20°C° 0 mm 2 mps 670 mmHg 93%
    06:00 +21°C° 0 mm 2 mps 670 mmHg 88%
    07:00 +23°C° 0 mm 2 mps 671 mmHg 83%
    08:00 +24°C° 0 mm 3 mps 671 mmHg 77%
    09:00 +26°C° 0.1 mm 3 mps 671 mmHg 71%
    10:00 +27°C° 0.1 mm 3 mps 671 mmHg 65%
    11:00 +29°C° 0.1 mm 3 mps 672 mmHg 59%
    12:00 +29°C° 0.6 mm 3 mps 671 mmHg 59%
    13:00 +30°C° 0.6 mm 3 mps 671 mmHg 60%
    14:00 +30°C° 0.6 mm 3 mps 670 mmHg 60%
    15:00 +29°C° 1.1 mm 3 mps 670 mmHg 64%
    16:00 +28°C° 1.1 mm 2 mps 669 mmHg 69%
    17:00 +27°C° 1.1 mm 2 mps 669 mmHg 73%
    18:00 +26°C° 0.2 mm 1 mps 669 mmHg 77%
    19:00 +25°C° 0.2 mm 1 mps 669 mmHg 81%
    20:00 +22°C° 0.2 mm 0 mps 670 mmHg 85%
    21:00 +24°C° 0.1 mm 1 mps 670 mmHg 86%
    22:00 +23°C° 0.1 mm 1 mps 670 mmHg 87%
    23:00 +23°C° 0.1 mm 1 mps 670 mmHg 89%

    Tomorrow, 19 January, Saturday

    Time Temperature Precipitation Wind Pressure Humidity
    00:00 +23°C° 0 mm 1 mps 670 mmHg 89%
    01:00 +22°C° 0 mm 1 mps 670 mmHg 90%
    02:00 +21°C° 0 mm 2 mps 669 mmHg 91%
    03:00 +21°C° 0 mm 2 mps 669 mmHg 91%
    04:00 +21°C° 0 mm 2 mps 669 mmHg 92%
    05:00 +21°C° 0 mm 2 mps 669 mmHg 92%
    06:00 +21°C° 0 mm 3 mps 670 mmHg 89%
    07:00 +22°C° 0 mm 3 mps 670 mmHg 86%
    08:00 +24°C° 0 mm 3 mps 671 mmHg 84%
    09:00 +25°C° 0.3 mm 3 mps 671 mmHg 79%
    10:00 +26°C° 0.3 mm 4 mps 671 mmHg 74%
    11:00 +27°C° 0.3 mm 4 mps 671 mmHg 69%
    12:00 +27°C° 0.8 mm 4 mps 671 mmHg 70%
    13:00 +27°C° 0.8 mm 4 mps 670 mmHg 70%
    14:00 +27°C° 0.8 mm 3 mps 670 mmHg 71%
    15:00 +26°C° 1.9 mm 3 mps 670 mmHg 76%
    16:00 +26°C° 1.9 mm 2 mps 669 mmHg 80%
    17:00 +25°C° 1.9 mm 2 mps 669 mmHg 84%
    18:00 +24°C° 0.9 mm 1 mps 670 mmHg 86%
    19:00 +23°C° 0.9 mm 1 mps 670 mmHg 87%
    20:00 +23°C° 0.9 mm 1 mps 671 mmHg 88%
    21:00 +23°C° 0.1 mm 1 mps 671 mmHg 89%
    22:00 +22°C° 0.1 mm 1 mps 671 mmHg 91%
    23:00 +22°C° 0.1 mm 1 mps 671 mmHg 92%

    Day after tomorrow, 20 January, Sunday

    Time Temperature Precipitation Wind Pressure Humidity
    00:00 +22°C° 0 mm 1 mps 671 mmHg 92%
    01:00 +21°C° 0 mm 1 mps 670 mmHg 93%
    02:00 +21°C° 0 mm 1 mps 670 mmHg 93%
    03:00 +21°C° 0.1 mm 1 mps 670 mmHg 93%
    04:00 +21°C° 0.1 mm 1 mps 670 mmHg 93%
    05:00 +21°C° 0.1 mm 1 mps 671 mmHg 93%
    06:00 +22°C° 0.3 mm 1 mps 671 mmHg 91%
    07:00 +22°C° 0.3 mm 1 mps 672 mmHg 88%
    08:00 +23°C° 0.3 mm 1 mps 672 mmHg 85%
    09:00 +24°C° 0.4 mm 1 mps 673 mmHg 78%
    10:00 +26°C° 0.4 mm 1 mps 673 mmHg 72%
    11:00 +27°C° 0.4 mm 1 mps 673 mmHg 65%
    12:00 +27°C° 0.6 mm 1 mps 673 mmHg 66%
    13:00 +27°C° 0.6 mm 1 mps 672 mmHg 68%
    14:00 +27°C° 0.6 mm 2 mps 672 mmHg 69%
    15:00 +26°C° 1.3 mm 2 mps 671 mmHg 74%
    16:00 +25°C° 1.3 mm 2 mps 671 mmHg 79%
    17:00 +24°C° 1.3 mm 2 mps 671 mmHg 85%
    18:00 +23°C° 0.8 mm 2 mps 671 mmHg 87%
    19:00 +23°C° 0.8 mm 2 mps 672 mmHg 88%
    20:00 +21°C° 0.8 mm 2 mps 672 mmHg 90%
    21:00 +21°C° 2.6 mm 2 mps 672 mmHg 91%
    22:00 +21°C° 2.6 mm 2 mps 672 mmHg 91%
    23:00 +21°C° 2.6 mm 2 mps 673 mmHg 92%

    21 January, Monday

    Time Temperature Precipitation Wind Pressure Humidity
    00:00 +21°C° 2 mm 2 mps 672 mmHg 92%
    01:00 +20°C° 2 mm 2 mps 672 mmHg 93%
    02:00 +20°C° 2 mm 2 mps 671 mmHg 93%
    03:00 +20°C° 1.1 mm 2 mps 671 mmHg 93%
    04:00 +20°C° 1.1 mm 2 mps 671 mmHg 93%
    05:00 +20°C° 1.1 mm 2 mps 671 mmHg 93%
    06:00 +20°C° 0.2 mm 2 mps 672 mmHg 91%
    07:00 +21°C° 0.2 mm 3 mps 672 mmHg 89%
    08:00 +21°C° 0.2 mm 3 mps 673 mmHg 87%
    09:00 +22°C° 0.1 mm 3 mps 673 mmHg 84%
    10:00 +22°C° 0.1 mm 3 mps 673 mmHg 81%
    11:00 +23°C° 0.1 mm 4 mps 673 mmHg 77%
    12:00 +23°C° 0.5 mm 4 mps 672 mmHg 80%
    13:00 +22°C° 0.5 mm 4 mps 671 mmHg 82%
    14:00 +22°C° 0.5 mm 4 mps 671 mmHg 84%
    15:00 +22°C° 0.9 mm 4 mps 670 mmHg 86%
    16:00 +21°C° 0.9 mm 3 mps 670 mmHg 88%
    17:00 +20°C° 0.9 mm 3 mps 670 mmHg 90%
    18:00 +20°C° 0.8 mm 3 mps 670 mmHg 91%
    19:00 +20°C° 0.8 mm 3 mps 671 mmHg 91%
    20:00 +20°C° 0.8 mm 3 mps 671 mmHg 92%
    21:00 +20°C° 1.4 mm 3 mps 671 mmHg 92%
    22:00 +19°C° 1.4 mm 2 mps 671 mmHg 92%
    23:00 +19°C° 1.4 mm 2 mps 671 mmHg 93%

    22 January, Tuesday

    Time Temperature Precipitation Wind Pressure Humidity
    00:00 +19°C° 1.2 mm 2 mps 671 mmHg 93%
    01:00 +19°C° 1.2 mm 2 mps 670 mmHg 93%
    02:00 +19°C° 1.2 mm 3 mps 670 mmHg 93%
    03:00 +19°C° 0.6 mm 3 mps 670 mmHg 93%
    04:00 +19°C° 0.6 mm 3 mps 670 mmHg 93%
    05:00 +19°C° 0.6 mm 2 mps 670 mmHg 93%
    06:00 +19°C° 0.5 mm 2 mps 671 mmHg 93%
    07:00 +19°C° 0.5 mm 2 mps 671 mmHg 93%
    08:00 +19°C° 0.5 mm 2 mps 671 mmHg 93%
    09:00 +20°C° 0.3 mm 2 mps 672 mmHg 90%
    10:00 +21°C° 0.3 mm 2 mps 672 mmHg 88%
    11:00 +23°C° 0.3 mm 2 mps 672 mmHg 85%
    12:00 +23°C° 0.5 mm 2 mps 671 mmHg 86%
    13:00 +23°C° 0.5 mm 2 mps 671 mmHg 87%
    14:00 +23°C° 0.5 mm 2 mps 670 mmHg 88%
    15:00 +23°C° 0.3 mm 2 mps 670 mmHg 87%
    16:00 +23°C° 0.3 mm 2 mps 670 mmHg 86%
    17:00 +23°C° 0.3 mm 2 mps 670 mmHg 85%
    18:00 +21°C° 0 mm 2 mps 670 mmHg 88%
    19:00 +21°C° 0 mm 2 mps 670 mmHg 90%
    20:00 +21°C° 0 mm 1 mps 671 mmHg 93%
    21:00 +20°C° 0 mm 1 mps 671 mmHg 93%
    22:00 +20°C° 0 mm 1 mps 671 mmHg 93%
    23:00 +20°C° 0 mm 1 mps 671 mmHg 93%

    23 January, Wednesday

    Time Temperature Precipitation Wind Pressure Humidity
    00:00 +20°C° 0 mm 1 mps 670 mmHg 94%
    01:00 +19°C° 0 mm 1 mps 670 mmHg 94%
    02:00 +19°C° 0 mm 1 mps 669 mmHg 94%
    03:00 +20°C° 0 mm 1 mps 669 mmHg 94%
    04:00 +20°C° 0 mm 1 mps 670 mmHg 94%
    05:00 +20°C° 0 mm 1 mps 670 mmHg 94%
    06:00 +21°C° 0 mm 1 mps 670 mmHg 91%
    07:00 +22°C° 0 mm 1 mps 671 mmHg 88%
    08:00 +23°C° 0 mm 1 mps 671 mmHg 85%
    09:00 +24°C° 0.3 mm 1 mps 671 mmHg 80%
    10:00 +26°C° 0.3 mm 1 mps 671 mmHg 74%
    11:00 +27°C° 0.3 mm 1 mps 671 mmHg 69%
    12:00 +27°C° 1 mm 1 mps 671 mmHg 70%
    13:00 +27°C° 1 mm 2 mps 670 mmHg 71%
    14:00 +27°C° 1 mm 2 mps 669 mmHg 73%
    15:00 +27°C° 1.2 mm 2 mps 669 mmHg 75%
    16:00 +26°C° 1.2 mm 1 mps 669 mmHg 78%
    17:00 +26°C° 1.2 mm 1 mps 669 mmHg 81%
    18:00 +25°C° 1.2 mm 1 mps 669 mmHg 84%
    19:00 +24°C° 1.2 mm 1 mps 670 mmHg 86%
    20:00 +21°C° 1.2 mm 0 mps 670 mmHg 89%
    21:00 +21°C° 1.2 mm 0 mps 670 mmHg 89%
    22:00 +21°C° 1.2 mm 0 mps 670 mmHg 89%
    23:00 +20°C° 1.2 mm 0 mps 670 mmHg 90%
    Show more